sat.trackr.live / text

‹ back to catalog

ONEWEB-0352

NORAD 49216 · 2021-083AG

PAYLOAD ACTIVE UNKNOWN

§ Identity

Operator
Country
UK
Launch date
2021-09-14
Launch site
TYMSC
Launch vehicle
Mass (kg)
RCS (m²)

Purposes: comms

External: N2YO · Heavens-Above · Gunter

§ Orbital elements

Epoch: 2026-05-25T00:27:57.737664Z

Period
109.63 min
Inclination
87.8940°
Eccentricity
0.0001382
Mean motion
13.13469223 rev/d
Perigee alt
1,208.7 km
Apogee alt
1,210.8 km
Semi-major
7,587.9 km
B*
8.7611e-4
RAAN
324.8484°
Arg perigee
89.4706°
Mean anomaly
270.6581°
Rev number
22,798

§ Raw data

ONEWEB-03521 49216U 21083AG  26145.01941826  .00000333  00000+0  87611-3 0  99992 49216  87.8940 324.8484 0001382  89.4706 270.6581 13.13469223227982

JSON: /api/v1/satellites/49216 · /tle

For live sub-satellite position, see the globe view (requires WebGL).

§ Visibility from observer

Set your observer location to see the next 7 days of passes ≥ 10°. The values pass through the URL so the page stays shareable.

No JS? Fill the form by hand. The geolocation button needs JavaScript.